Ephrata, WA

11:13 AM PDT on October 01, 2016 (GMT -0700)
Ephrata Municipal

Weather History for KEPH - May, 2013

Change the Weather History Date:

Saturday, May 11, 2013

  Actual Average Record
Temperature  
Mean Temperature 78 °F 58 °F  
Max Temperature 90 °F 71 °F 92 °F (1969)
Min Temperature 65 °F 45 °F 32 °F (1985)
Degree Days  
Heating Degree Days 0 8  
Month to date heating degree days 25 104  
Since 1 July heating degree days 5348 5801  
Cooling Degree Days 13 1  
Month to date cooling degree days 53 8  
Year to date cooling degree days 53 10  
Growing Degree Days 26 (Base 50)    
Moisture  
Dew Point 38 °F    
Average Humidity 28    
Maximum Humidity 40    
Minimum Humidity 16    
Precipitation  
Precipitation 0.00 in 0.02 in 0.47 in (1951)
Month to date precipitation 0.00 0.18  
Year to date precipitation 1.52 2.99  
Sea Level Pressure  
Sea Level Pressure 30.00 in    
Wind  
Wind Speed 5 mph (WSW)    
Max Wind Speed 15 mph    
Max Gust Speed 20 mph    
Visibility 10 miles    
Events      
T = Trace of Precipitation, MM = Missing Value Source: NWS Daily Summary

Daily Weather History Graph

Daily Weather History Graph

Search for Another Location

Airport or City:

Trip Planner

Search our weather history database for the weather conditions in past years. The results will help you decide how hot, cold, wet, or windy it might be!

Date:

Astronomy

May. 11, 2013 Rise Set
Actual Time 5:26 AM PDT 8:23 PM PDT
Civil Twilight 4:50 AM PDT 8:59 PM PDT
Nautical Twilight 4:04 AM PDT 9:45 PM PDT
Astronomical Twilight 3:09 AM PDT 10:41 PM PDT
Moon 6:35 AM PDT (5/11) 10:10 PM PDT (5/11)
Length of Visible Light 16h 08m
Length of Day
14h 56m
Waxing Crescent, 3% of the Moon is Illuminated
May 11
Waxing Crescent
May 17
First Quarter
May 24
Full
May 31
Last Quarter
Jun 8
New

Hourly Weather History & Observations

Time (PDT) Temp. Dew Point Humidity Pressure Visibility Wind Dir Wind Speed Gust Speed Precip Events Conditions
12:53 AM 75.0 °F 33.1 °F 22% 30.04 in 10.0 mi North 9.2 mph - N/A   Clear
1:53 AM 72.0 °F 32.0 °F 23% 30.05 in 10.0 mi NW 4.6 mph - N/A   Clear
2:53 AM 66.0 °F 37.0 °F 34% 30.06 in 10.0 mi WNW 3.5 mph - N/A   Clear
3:53 AM 70.0 °F 33.1 °F 26% 30.05 in 10.0 mi WNW 8.1 mph - N/A   Clear
4:53 AM 69.1 °F 33.1 °F 26% 30.04 in 10.0 mi WNW 10.4 mph - N/A   Clear
5:53 AM 68.0 °F 33.1 °F 27% 30.04 in 10.0 mi NNW 6.9 mph - N/A   Clear
6:53 AM 64.9 °F 39.9 °F 40% 30.06 in 10.0 mi NNE 5.8 mph - N/A   Partly Cloudy
7:53 AM 72.0 °F 36.0 °F 27% 30.05 in 10.0 mi Calm Calm - N/A   Clear
8:53 AM 70.0 °F 42.1 °F 36% 30.06 in 10.0 mi Variable 3.5 mph - N/A   Clear
9:53 AM 77.0 °F 37.0 °F 24% 30.06 in 10.0 mi ENE 3.5 mph - N/A   Clear
10:53 AM 82.0 °F 35.1 °F 18% 30.05 in 10.0 mi Calm Calm - N/A   Clear
11:53 AM 84.9 °F 37.0 °F 18% 30.03 in 10.0 mi SSW 9.2 mph - N/A   Clear
12:53 PM 87.1 °F 36.0 °F 16% 30.02 in 10.0 mi South 5.8 mph - N/A   Clear
1:53 PM 88.0 °F 36.0 °F 16% 30.01 in 10.0 mi SW 6.9 mph - N/A   Clear
2:53 PM 89.1 °F 37.0 °F 16% 30.00 in 10.0 mi SSW 12.7 mph 17.3 mph N/A   Clear
3:53 PM 88.0 °F 37.9 °F 17% 29.97 in 10.0 mi SW 9.2 mph 18.4 mph N/A   Clear
4:53 PM 89.1 °F 37.9 °F 16% 29.96 in 10.0 mi SSE 6.9 mph - N/A   Clear
5:53 PM 88.0 °F 39.0 °F 18% 29.94 in 10.0 mi SW 8.1 mph - N/A   Clear
6:53 PM 84.9 °F 39.0 °F 20% 29.94 in 10.0 mi South 5.8 mph - N/A   Clear
7:53 PM 82.0 °F 42.1 °F 24% 29.92 in 10.0 mi SSE 5.8 mph - N/A   Clear
8:53 PM 77.0 °F 44.1 °F 31% 29.93 in 10.0 mi Calm Calm - N/A   Clear
9:53 PM 75.0 °F 43.0 °F 32% 29.92 in 10.0 mi NNE 3.5 mph - N/A   Clear
10:53 PM 73.9 °F 44.1 °F 34% 29.92 in 10.0 mi Calm Calm - N/A   Clear
11:53 PM 70.0 °F 45.0 °F 41% 29.92 in 10.0 mi Calm Calm - N/A   Clear